Location: Newark
(39.0622°N, 106.5590°E)
Time: 06:17:12
(UTC+00:00)

Vanguard 1 - All Passes

Search period start: 20 January 2020 00:00
Search period end: 30 January 2020 00:00
Orbit: 651 x 3832 km, 34.2° (Epoch: 19 January)

Date Brightness Start Highest point End Pass type
(mag) Time Alt. Az. Time Alt. Az. Time Alt. Az.
20 Jan - 09:14:04 10° S 09:16:20 14° SSE 09:18:43 10° ESE daylight
20 Jan - 11:30:54 10° WSW 11:35:29 48° SSE 11:42:19 10° E visible
20 Jan - 13:49:42 10° W 13:55:45 58° S 14:06:36 10° ESE visible
20 Jan - 16:09:22 10° W 16:17:20 37° SSW 16:30:54 10° SE night (unlit)
20 Jan - 18:33:09 10° WSW 18:40:19 16° SSW 18:49:29 10° S visible
21 Jan - 09:33:39 10° SSW 09:36:58 20° SSE 09:40:38 10° ESE daylight
21 Jan - 11:51:36 10° WSW 11:56:19 54° S 12:03:35 10° E visible
21 Jan - 14:10:34 10° W 14:16:46 52° S 14:27:48 10° ESE visible
21 Jan - 16:30:42 10° W 16:38:30 30° SSW 16:51:02 10° SSE night (unlit)
21 Jan - 19:00:24 10° SW 19:01:39 10° SW 19:02:57 10° SSW visible
22 Jan - 09:53:50 10° SW 09:57:39 28° SSE 10:02:04 10° E daylight
22 Jan - 12:12:22 10° WSW 12:17:12 56° S 12:24:51 10° ESE visible
22 Jan - 14:31:29 10° W 14:37:48 44° SSW 14:48:49 10° SE visible
22 Jan - 16:52:24 10° WSW 16:59:43 23° SSW 17:10:36 10° SSE night (unlit)
23 Jan - 10:14:19 10° SW 10:18:23 37° SSE 10:23:19 10° E daylight
23 Jan - 12:33:11 10° W 12:38:07 55° S 12:46:04 10° ESE visible
23 Jan - 14:52:32 10° W 14:58:51 37° SSW 15:09:33 10° SE visible
23 Jan - 17:14:48 10° WSW 17:20:58 17° SSW 17:29:15 10° S night (unlit)
24 Jan - 08:17:10 10° S 08:19:50 15° SSE 08:22:22 10° ESE daylight
24 Jan - 10:34:58 10° WSW 10:39:11 44° SSE 10:44:29 10° E visible
24 Jan - 12:54:01 10° W 12:59:03 50° S 13:07:13 10° ESE visible
24 Jan - 15:13:43 10° WSW 15:19:57 29° SSW 15:29:57 10° SSE night (unlit)
24 Jan - 17:39:25 10° SW 17:42:16 11° SSW 17:45:27 10° SSW night (unlit)
25 Jan - 08:36:59 10° SSW 08:40:36 21° SSE 08:44:02 10° ESE daylight
25 Jan - 10:55:44 10° WSW 11:00:01 50° S 11:05:36 10° E visible
25 Jan - 13:14:55 10° W 13:20:00 43° S 13:28:15 10° ESE visible
25 Jan - 15:35:12 10° WSW 15:41:05 23° SSW 15:49:50 10° SSE night (unlit)
26 Jan - 08:57:19 10° SW 09:01:22 29° SSE 09:05:17 10° E daylight
26 Jan - 11:16:32 10° WSW 11:20:52 51° S 11:26:43 10° ESE visible
26 Jan - 13:35:53 10° W 13:40:58 36° SSW 13:49:03 10° SE visible
26 Jan - 15:57:16 10° WSW 16:02:15 17° SSW 16:08:57 10° S night (unlit)
27 Jan - 07:00:00 10° S 07:02:29 13° SSE 07:04:42 10° SE daylight
27 Jan - 09:17:54 10° SW 09:22:10 37° SSE 09:26:24 10° E daylight
27 Jan - 11:37:23 10° W 11:41:45 48° S 11:47:46 10° ESE visible
27 Jan - 13:56:59 10° WSW 14:01:58 29° SSW 14:09:35 10° SE visible
27 Jan - 16:21:09 10° SW 16:23:27 11° SSW 16:26:02 10° SSW night (unlit)
28 Jan - 07:19:25 10° SSW 07:23:23 19° SSE 07:26:39 10° ESE daylight
28 Jan - 09:38:39 10° WSW 09:43:00 43° S 09:47:26 10° E daylight
28 Jan - 11:58:16 10° W 12:02:38 43° S 12:08:44 10° ESE visible
28 Jan - 14:18:20 10° WSW 14:23:00 22° SSW 14:29:41 10° SSE visible
29 Jan - 07:39:35 10° SW 07:44:14 26° SSE 07:48:00 10° ESE daylight
29 Jan - 09:59:30 10° WSW 10:03:49 47° S 10:08:26 10° ESE daylight
29 Jan - 12:19:14 10° W 12:23:32 35° SSW 12:29:34 10° SE visible
29 Jan - 14:40:12 10° WSW 14:44:04 16° SSW 14:49:06 10° S visible
